[[[{"header":{"parameterUnit":"kt","parameterCategory":2,"dx":1,"dy":1,"la1":30.253999710083008,"la2":30.299108505249023,"lo1":-89.0895004272461,"lo2":-89.04439544677734,"nx":28,"ny":28,"refTime":"2022-10-13T21:00:00:Z","depth":"0","parameterNumber":2,"parameterNumberName":"U-component_of_CURRENTS"},"data":[-0.0551,-0.027,-0.0185,0.0265,0.0465,0.0889,0.1147,0.1525,0.1997,0.2876,0.3548,0.4023,0.5037,0.6369,0.6957,0.682,0.6222,0.6247,0.5742,0.6041,0.5933,0.5831,0.5858,0.6833,0.6833,0.5517,0.5508,0.5502,-0.0741,-0.0622,-0.0413,-0.0088,0.0195,0.0289,0.0755,0.1053,0.1588,0.2197,0.2743,0.3835,0.4685,0.5253,0.6052,0.6097,0.5586,0.5997,0.552,0.5226,0.5429,0.5474,0.6384,0.6383,0.6383,0.6383,0.6383,0.6382,-0.1023,-0.0917,-0.0703,-0.043,-0.0179,0.0163,0.0424,0.0812,0.1272,0.1884,0.2186,0.2844,0.3735,0.4484,0.4595,0.5096,0.4454,0.5058,0.4861,0.4457,0.4266,0.4347,0.5064,0.5059,0.5056,0.5052,0.5049,0,-0.111,-0.1076,-0.0928,-0.0644,-0.0418,-0.0131,0.021,0.0436,0.0842,0.12,0.1782,0.2163,0.289,0.35,0.3933,0.4035,0.3626,0.3886,0.3987,0.4092,0.375,0.3554,0.3354,0.3963,0.3952,0.3944,0.3938,0.3934,-0.1145,-0.1104,-0.0889,-0.0736,-0.0634,-0.0397,-0.0146,0.0125,0.042,0.0954,0.12,0.1703,0.2156,0.2757,0.3008,0.3311,0.3001,0.3628,0.3368,0.3518,0.3398,0.3006,0.2786,0.3819,0.3833,0.3845,0.3855,0,-0.1127,-0.1042,-0.0922,-0.0711,-0.0615,-0.0498,-0.0117,0.011,0.034,0.0758,0.0867,0.124,0.1668,0.183,0.213,0.2158,0.2473,0.254,0.2797,0.2906,0.3321,0.3162,0.3392,0.3201,0.2999,0.301,0.3019,0,-0.1043,-0.0972,-0.0801,-0.074,-0.0579,-0.042,-0.0193,-0.0016,0.0302,0.0594,0.0695,0.0975,0.1086,0.1381,0.1422,0.183,0.1756,0.1894,0.1978,0.217,0.2211,0.2426,0.2283,0.1628,0.1624,0.1621,0.1619,0,-0.0997,-0.0835,-0.0759,-0.069,-0.0446,-0.0367,-0.0219,0.004,0.0233,0.0481,0.0659,0.0788,0.0967,0.1062,0.1263,0.1118,0.1605,0.143,0.1792,0.1814,0.2155,0.2202,0.2689,0.1614,0.1613,0.1612,0.1611,0,-0.0908,-0.0815,-0.0708,-0.0523,-0.0477,-0.0368,-0.0115,0.0033,0.0287,0.0385,0.0504,0.0582,0.0741,0.0649,0.0919,0.0813,0.0923,0.1004,0.1022,0.1333,0.1331,0.1921,0.2267,0.2421,0.1218,0.1214,0.121,0,-0.0905,-0.079,-0.0698,-0.0558,-0.0478,-0.0321,-0.0184,-0.0018,0.0112,0.0281,0.0323,0.0451,0.0365,0.0435,0.0503,0.0667,0.0773,0.0579,0.0946,0.0958,0.121,0.1454,0.1749,0.2164,0.1153,0.1159,0.1163,0,-0.0903,-0.0745,-0.0736,-0.0673,-0.0495,-0.0402,-0.025,-0.0092,0.0017,0.0095,0.0226,0.029,0.0309,0.0367,0.0396,0.0483,0.0684,0.0514,0.052,0.0668,0.1031,0.1337,0.1405,0.0699,0.0704,0.0708,0.1118,0,-0.0818,-0.0762,-0.0734,-0.0613,-0.0515,-0.0437,-0.0295,-0.0195,-0.0136,-0.0058,0.0051,0.0114,0.023,0.0244,0.0272,0.0413,0.0464,0.044,0.0435,0.0511,0.0682,0.0718,0.0299,0.0299,0.0299,0.0298,0,0,-0.0864,-0.0797,-0.0728,-0.0657,-0.0588,-0.0482,-0.0405,-0.0315,-0.0175,-0.0127,-0.0137,0.0039,0.0093,0.0218,0.0244,0.0272,0.0378,0.0283,0.0458,0.0475,0.0492,0.0658,0.0692,0.0298,0.0298,0.0298,0.0298,0,-0.0835,-0.0792,-0.076,-0.0675,-0.0565,-0.048,-0.0457,-0.0332,-0.0285,-0.0172,-0.0133,-0.0067,0.0065,0.0132,0.0182,0.0262,0.0345,0.0288,0.032,0.0452,0.0469,0.0485,0.0652,0.0682,0.0298,0.0298,0.0298,0,-0.0835,-0.0777,-0.0755,-0.064,-0.0575,-0.0478,-0.0462,-0.0375,-0.0293,-0.0257,-0.0152,-0.0104,-0.0017,0.0084,0.0129,0.0124,0.033,0.0227,0.023,0.024,0.0377,0.0396,0.0413,0.0194,0.0193,0.0193,0,0,-0.0824,-0.0789,-0.0672,-0.0627,-0.0588,-0.0491,-0.044,-0.0381,-0.0296,-0.0263,-0.0195,-0.0122,-0.0042,0.0006,0.008,0.0169,0.025,0.0212,0.0217,0.0221,0.0233,0.0369,0.0387,0.0191,0.019,0.019,0,0,-0.0811,-0.0709,-0.0688,-0.0629,-0.0534,-0.0415,-0.0381,-0.0337,-0.0259,-0.0262,-0.0196,-0.0174,-0.0082,-0.0039,-0.0077,0.0081,0.0064,0.0074,0.005,0.0057,0.0062,0.0057,-0.0058,0,0,0,0,0,-0.075,-0.0723,-0.0706,-0.0683,-0.0547,-0.0429,-0.0407,-0.0336,-0.0342,-0.0305,-0.0245,-0.0228,-0.0038,-0.007,-0.0049,-0.0006,0.0161,0.0166,0.0171,0.0162,0.0169,0.0174,0,0,0,0,0,0,-0.0741,-0.0716,-0.0705,-0.0592,-0.0559,-0.0431,-0.0422,-0.0402,-0.0344,-0.0338,-0.024,-0.0225,-0.0176,-0.0078,-0.0059,-0.0019,-0.0064,0.0163,0.0167,0.0171,0.0164,0.017,0.0174,0,0,0,0,0,-0.0733,-0.0712,-0.052,-0.059,-0.0562,-0.0456,-0.0424,-0.0406,-0.0363,-0.0268,-0.0251,-0.0312,-0.0177,-0.0157,-0.0067,-0.0028,-0.0076,-0.007,0.0166,0.0169,0.0173,0.0167,0,0,0,0,0,0,-0.0727,-0.0695,-0.0512,-0.0499,-0.0601,-0.046,-0.0439,-0.0411,-0.0295,-0.0277,-0.0338,-0.0335,-0.0177,-0.0162,-0.0147,-0.0034,-0.0087,-0.008,-0.0075,0.0169,0.0171,0.0174,0,0,0,0,0,0,-0.0704,-0.0685,-0.0505,-0.0524,-0.0512,-0.0465,-0.0446,-0.0375,-0.0296,-0.0372,-0.0365,-0.0338,-0.0203,-0.0165,-0.0153,-0.0043,-0.0094,-0.0088,-0.0083,-0.008,0.0171,0.0173,0,0,0,0,0,0,-0.0694,-0.0677,-0.0527,-0.0518,-0.0508,-0.0362,-0.04,-0.027,-0.0297,-0.0379,-0.0299,-0.0299,-0.0207,-0.0194,-0.0157,-0.0053,-0.0045,-0.0094,-0.009,-0.0087,-0.0084,0,0,0,0,0,0,0,-0.0686,-0.0824,-0.0584,-0.0514,-0.0505,-0.038,-0.0377,-0.0373,-0.0298,-0.0298,-0.0299,-0.0299,-0.0132,-0.0124,-0.0117,-0.0061,0,0,-0.0095,-0.0092,0,0,0,0,0,0,0,0,-0.0829,-0.0825,-0.0584,-0.0581,-0.0578,-0.0379,-0.0377,-0.0374,-0.0298,-0.0298,-0.0299,-0.0299,-0.013,-0.0124,-0.0118,0,0,0,0,0,0,0,0,0,0,0,0,0,0,0,-0.0583,-0.0581,0,-0.0379,-0.0377,-0.0375,-0.0298,-0.0298,-0.0298,-0.0299,-0.0128,-0.0123,-0.0118,0,0,0,0,0,0,0,0,0,0,0,0,0,0,0,0,0,0,0,0,0,0,0,0,0,0,0,0,0,0,0,0,0,0,0,0,0,0,0,0,0,0,0,0,0,0,0,0,0,0,0,0,0,0,0,0,0,0,0,0,0,0,0,0,0,0,0,0,0]}],[{"header":{"parameterUnit":"kt","parameterCategory":2,"dx":1,"dy":1,"la1":30.253999710083008,"la2":30.299108505249023,"lo1":-89.0895004272461,"lo2":-89.04439544677734,"nx":28,"ny":28,"refTime":"2022-10-13T21:00:00:Z","depth":"0","parameterNumber":3,"parameterNumberName":"V-component_of_CURRENTS"},"data":[-0.0904,-0.0572,-0.0434,0.0184,0.0478,0.0979,0.1204,0.1459,0.1687,0.2082,0.2334,0.2437,0.204,-0.0133,-0.175,-0.2339,-0.3068,-0.3242,-0.3599,-0.3068,-0.3033,-0.3,-0.3066,-0.3349,-0.3351,-0.4188,-0.4197,-0.4204,-0.1074,-0.0906,-0.0605,-0.0185,0.0181,0.026,0.0619,0.0868,0.1193,0.1374,0.1519,0.152,0.0744,-0.0138,-0.1257,-0.2064,-0.248,-0.2495,-0.2633,-0.2771,-0.2032,-0.2056,-0.2129,-0.2129,-0.2128,-0.2128,-0.2128,-0.2128,-0.1342,-0.1172,-0.088,-0.0557,-0.0272,0.0042,0.0285,0.0483,0.0748,0.0987,0.088,0.0988,0.042,-0.0374,-0.0978,-0.1813,-0.1879,-0.1964,-0.2172,-0.2265,-0.2479,-0.172,-0.1698,-0.1699,-0.17,-0.1701,-0.1701,0,-0.1473,-0.137,-0.1182,-0.0814,-0.0589,-0.0326,-0.0078,0.0065,0.0209,0.0315,0.0438,0.0404,-0.0043,-0.0382,-0.0943,-0.1249,-0.1823,-0.1606,-0.1892,-0.2097,-0.2252,-0.2428,-0.1636,-0.1593,-0.1593,-0.1594,-0.1594,-0.1594,-0.1588,-0.148,-0.1187,-0.1016,-0.0917,-0.0669,-0.0463,-0.0365,-0.0211,-0.0123,-0.0031,-0.0163,-0.0224,-0.0618,-0.1067,-0.1438,-0.1719,-0.1601,-0.1712,-0.2006,-0.2218,-0.2339,-0.2493,-0.16,-0.1599,-0.1598,-0.1598,0,-0.1622,-0.1523,-0.1329,-0.1106,-0.1028,-0.0856,-0.0623,-0.0466,-0.0444,-0.0298,-0.0299,-0.0436,-0.0602,-0.09,-0.1114,-0.1364,-0.1718,-0.1636,-0.1557,-0.155,-0.1979,-0.2173,-0.2393,-0.2583,-0.1791,-0.1792,-0.1793,0,-0.164,-0.1537,-0.1338,-0.1258,-0.1046,-0.0971,-0.0787,-0.074,-0.0648,-0.0533,-0.0742,-0.072,-0.1016,-0.112,-0.1344,-0.1552,-0.1482,-0.1765,-0.1763,-0.1687,-0.1686,-0.1902,-0.2093,-0.1698,-0.1698,-0.1698,-0.1698,0,-0.165,-0.1518,-0.1379,-0.133,-0.1152,-0.1081,-0.0993,-0.0921,-0.0835,-0.0877,-0.0855,-0.1036,-0.1078,-0.124,-0.1457,-0.1506,-0.158,-0.1629,-0.1761,-0.1765,-0.168,-0.1678,-0.191,-0.1698,-0.1698,-0.1698,-0.1698,0,-0.1678,-0.1571,-0.1436,-0.128,-0.1254,-0.1186,-0.1044,-0.0986,-0.0983,-0.1022,-0.1137,-0.1229,-0.1357,-0.1476,-0.1623,-0.1622,-0.1701,-0.1769,-0.1767,-0.1804,-0.1808,-0.1695,-0.1704,-0.1969,-0.1764,-0.1764,-0.1764,0,-0.1689,-0.1564,-0.1541,-0.1433,-0.1367,-0.1338,-0.1266,-0.123,-0.1262,-0.1244,-0.1406,-0.1424,-0.1607,-0.1623,-0.1711,-0.1745,-0.1795,-0.1811,-0.1766,-0.1765,-0.1781,-0.1811,-0.1727,-0.1712,-0.177,-0.1769,-0.1769,0,-0.1702,-0.1604,-0.16,-0.1528,-0.1488,-0.1442,-0.1415,-0.1377,-0.1322,-0.1444,-0.1413,-0.1575,-0.1645,-0.1672,-0.1748,-0.1794,-0.1806,-0.1813,-0.1812,-0.1783,-0.1763,-0.1813,-0.1814,-0.1787,-0.1786,-0.1785,-0.1773,0,-0.1594,-0.1583,-0.1597,-0.1539,-0.1512,-0.1503,-0.147,-0.1468,-0.1494,-0.1501,-0.1566,-0.1655,-0.1686,-0.175,-0.1783,-0.1813,-0.1811,-0.1799,-0.1777,-0.1804,-0.1801,-0.1798,-0.1833,-0.1833,-0.1833,-0.1833,0,0,-0.1609,-0.1588,-0.1603,-0.1572,-0.1534,-0.154,-0.15,-0.1513,-0.1514,-0.1516,-0.1558,-0.1645,-0.1692,-0.1723,-0.1756,-0.1786,-0.1775,-0.1798,-0.181,-0.1808,-0.1805,-0.1802,-0.1799,-0.1832,-0.1832,-0.1832,-0.1832,0,-0.1559,-0.1599,-0.16,-0.1576,-0.1546,-0.1523,-0.1529,-0.1519,-0.1527,-0.1551,-0.1552,-0.1614,-0.168,-0.1692,-0.171,-0.1778,-0.1764,-0.1812,-0.1834,-0.1809,-0.1807,-0.1805,-0.1802,-0.1799,-0.1832,-0.1832,-0.1832,0,-0.152,-0.1504,-0.1516,-0.1511,-0.151,-0.1478,-0.148,-0.1489,-0.1459,-0.1488,-0.1511,-0.1554,-0.1585,-0.1637,-0.167,-0.167,-0.1749,-0.1757,-0.176,-0.1747,-0.1719,-0.1718,-0.1717,-0.1718,-0.1718,-0.1717,0,0,-0.1483,-0.15,-0.1464,-0.1498,-0.15,-0.1477,-0.1479,-0.1455,-0.1464,-0.1478,-0.1501,-0.1536,-0.1564,-0.1599,-0.1625,-0.1703,-0.1684,-0.1741,-0.1746,-0.175,-0.174,-0.1714,-0.1714,-0.1715,-0.1715,-0.1715,0,0,-0.1461,-0.1431,-0.1415,-0.1457,-0.1435,-0.1409,-0.1435,-0.1419,-0.1453,-0.1461,-0.1467,-0.1474,-0.1528,-0.1559,-0.1525,-0.1631,-0.1612,-0.162,-0.1605,-0.1613,-0.1618,-0.1589,-0.1506,0,0,0,0,0,-0.1384,-0.1431,-0.1416,-0.1416,-0.1424,-0.1416,-0.1417,-0.1394,-0.1397,-0.1418,-0.1436,-0.1438,-0.1533,-0.1502,-0.1518,-0.1556,-0.1686,-0.1691,-0.1696,-0.1694,-0.1701,-0.1707,0,0,0,0,0,0,-0.1384,-0.1387,-0.1413,-0.1391,-0.139,-0.1417,-0.1383,-0.138,-0.1393,-0.1391,-0.1433,-0.1438,-0.1434,-0.1496,-0.151,-0.1546,-0.1501,-0.1688,-0.1692,-0.1696,-0.1696,-0.1702,-0.1707,0,0,0,0,0,-0.1383,-0.1385,-0.1408,-0.139,-0.1389,-0.1359,-0.1383,-0.138,-0.141,-0.1402,-0.1407,-0.139,-0.1435,-0.1447,-0.1504,-0.1539,-0.1492,-0.1497,-0.169,-0.1694,-0.1697,-0.1699,0,0,0,0,0,0,-0.1382,-0.14,-0.1407,-0.1405,-0.1372,-0.1358,-0.1359,-0.138,-0.1423,-0.1424,-0.1357,-0.1355,-0.1436,-0.1445,-0.1455,-0.1536,-0.1485,-0.149,-0.1493,-0.1693,-0.1696,-0.1698,0,0,0,0,0,0,-0.1397,-0.1399,-0.1407,-0.1386,-0.1382,-0.1357,-0.1358,-0.1414,-0.1426,-0.138,-0.1376,-0.1356,-0.1429,-0.1444,-0.1452,-0.154,-0.1479,-0.1484,-0.1487,-0.1489,-0.1695,-0.1697,0,0,0,0,0,0,-0.1397,-0.1399,-0.1388,-0.1385,-0.1381,-0.1363,-0.1409,-0.1433,-0.1364,-0.1382,-0.136,-0.1358,-0.1429,-0.1436,-0.1449,-0.1534,-0.1538,-0.1479,-0.1483,-0.1485,-0.1486,0,0,0,0,0,0,0,-0.1397,-0.1395,-0.1406,-0.1383,-0.138,-0.1379,-0.138,-0.1381,-0.1364,-0.1362,-0.136,-0.1359,-0.1452,-0.1457,-0.1462,-0.153,0,0,-0.1479,-0.1481,0,0,0,0,0,0,0,0,-0.1393,-0.1395,-0.1406,-0.1404,-0.1403,-0.1379,-0.138,-0.1381,-0.1363,-0.1362,-0.1361,-0.1359,-0.1453,-0.1457,-0.1462,0,0,0,0,0,0,0,0,0,0,0,0,0,0,0,-0.1406,-0.1404,0,-0.1379,-0.138,-0.1381,-0.1363,-0.1362,-0.1361,-0.136,-0.1454,-0.1458,-0.1461,0,0,0,0,0,0,0,0,0,0,0,0,0,0,0,0,0,0,0,0,0,0,0,0,0,0,0,0,0,0,0,0,0,0,0,0,0,0,0,0,0,0,0,0,0,0,0,0,0,0,0,0,0,0,0,0,0,0,0,0,0,0,0,0,0,0,0,0,0]}]],[[{"header":{"parameterUnit":"kt","parameterCategory":2,"dx":1,"dy":1,"la1":30.253999710083008,"la2":30.299108505249023,"lo1":-89.0895004272461,"lo2":-89.04439544677734,"nx":28,"ny":28,"refTime":"2022-10-13T21:00:00:Z","depth":"2","parameterNumber":2,"parameterNumberName":"U-component_of_CURRENTS"},"data":[0.082,0.0904,0.0923,0.1105,0.1189,0.1346,0.1437,0.1533,0.1693,0.1829,0.1955,0.2199,0.2343,0.2104,0.2086,0.2029,0.2107,0.1933,0.2587,0.2476,0.2507,0.2578,0.2262,0,0,0,0,0,0.0743,0.0766,0.084,0.0957,0.1061,0.1118,0.1285,0.1401,0.1638,0.1899,0.2159,0.2107,0.2245,0.2421,0.2366,0.2385,0.2281,0.2332,0.2205,0.2243,0.2278,0.2043,0.19,0.1898,0.1896,0.1894,0,0,0.0609,0.0639,0.0705,0.0829,0.0923,0.1047,0.1172,0.136,0.1597,0.1962,0.2135,0.2418,0.2565,0.2771,0.2798,0.2812,0.295,0.2861,0.2869,0.2883,0.2687,0.2588,0.2709,0.2712,0.2715,0.2718,0.272,0,0.0549,0.0544,0.0619,0.0736,0.0844,0.0982,0.1182,0.1296,0.1603,0.184,0.2178,0.2398,0.2772,0.2872,0.3124,0.3139,0.3157,0.3148,0.3524,0.2697,0.26,0.2514,0.2495,0.2754,0.2757,0.276,0.2762,0.2763,0.0446,0.0505,0.0627,0.0693,0.0772,0.0944,0.1078,0.1314,0.1484,0.1918,0.2051,0.2444,0.2693,0.3112,0.3165,0.3364,0.3416,0.3235,0.2956,0.3157,0.3078,0.3037,0.2997,0.2803,0.2798,0.2794,0.2791,0,0.0382,0.046,0.0589,0.076,0.0819,0.0932,0.118,0.1341,0.158,0.1862,0.1956,0.231,0.2615,0.2855,0.313,0.3143,0.3299,0.3338,0.3042,0.2962,0.3022,0.2982,0.3409,0.3409,0.3409,0.3409,0.3408,0,0.0353,0.0455,0.0576,0.0646,0.081,0.0945,0.116,0.1318,0.1575,0.179,0.1987,0.2191,0.2419,0.2674,0.275,0.2964,0.3076,0.293,0.2894,0.2626,0.2587,0.2676,0.2628,0.3062,0.3059,0.3056,0.3053,0,0.0263,0.0442,0.0572,0.0628,0.0822,0.0932,0.1055,0.1304,0.1453,0.1723,0.186,0.2153,0.2308,0.2467,0.2618,0.2507,0.2945,0.2761,0.2776,0.2767,0.2549,0.2506,0.305,0.3049,0.3048,0.3047,0.3046,0,0.0243,0.0333,0.0505,0.0669,0.072,0.0828,0.1067,0.1209,0.1472,0.1565,0.1796,0.186,0.2154,0.203,0.2386,0.2242,0.2326,0.2365,0.2376,0.2216,0.2006,0.2061,0.2354,0.242,0.2414,0.2409,0.2404,0,0.0133,0.0296,0.0355,0.0522,0.0613,0.069,0.0851,0.1007,0.1126,0.1304,0.1456,0.1616,0.1613,0.1684,0.1847,0.19,0.2094,0.1878,0.2034,0.2041,0.1909,0.2232,0.196,0.2274,0.2331,0.2339,0.2344,0,0.0036,0.0166,0.0183,0.0249,0.0375,0.0429,0.0613,0.0781,0.0913,0.1027,0.1224,0.1428,0.1454,0.1524,0.1546,0.1679,0.1969,0.1586,0.1586,0.1739,0.2265,0.2144,0.2181,0.1883,0.1891,0.1898,0.2287,0,0.0032,0.0076,0.0116,0.0221,0.0274,0.0348,0.0432,0.0513,0.0564,0.0638,0.0856,0.0906,0.106,0.1109,0.1107,0.1388,0.1355,0.1234,0.115,0.1363,0.15,0.1546,0.0933,0.0929,0.0925,0.0922,0,0,-0.0079,-0.0017,-0.0035,0.0045,0.0095,0.0089,0.0188,0.0241,0.0311,0.0396,0.0346,0.0585,0.0612,0.0867,0.0956,0.0925,0.0981,0.0954,0.1234,0.1269,0.1301,0.1444,0.1492,0.0915,0.0913,0.0912,0.0911,0,-0.0071,-0.01,-0.0053,-0.002,0.0025,0.005,0.0075,0.012,0.0161,0.027,0.028,0.0399,0.0485,0.059,0.0648,0.0851,0.0844,0.0866,0.1085,0.1196,0.1236,0.1271,0.1419,0.1466,0.0901,0.0902,0.0902,0,-0.0114,-0.01,-0.0102,-0.0077,-0.0064,0.0012,-0.0046,-0.0003,0.0085,0.0021,0.015,0.0176,0.0228,0.0378,0.0439,0.0391,0.0723,0.0575,0.0595,0.0643,0.0751,0.0797,0.0838,0.0316,0.0315,0.0313,0,0,-0.0105,-0.0097,-0.0081,-0.0076,-0.0058,-0.0053,-0.0044,-0.0034,-0.0001,0.0011,0.0042,0.0097,0.0183,0.0235,0.0278,0.0402,0.0432,0.051,0.0537,0.056,0.062,0.0734,0.0778,0.0308,0.0308,0.0308,0,0,-0.0099,-0.0085,-0.0101,-0.0093,-0.0074,-0.0064,-0.0051,-0.0052,-0.002,-0.0006,-0.0007,0.0003,0.0131,0.0117,0.0047,0.0298,0.0177,0.0191,0.0337,0.037,0.0397,0.0461,0.0003,0,0,0,0,0,-0.0092,-0.0084,-0.0099,-0.0098,-0.0098,-0.0063,-0.0063,-0.007,-0.0076,-0.0059,-0.0027,-0.0048,0.0099,0.0035,0.0043,0.0191,0.024,0.0252,0.0263,0.0477,0.0513,0.0544,0,0,0,0,0,0,-0.0091,-0.009,-0.0099,-0.009,-0.009,-0.0065,-0.0093,-0.0095,-0.0078,-0.0078,-0.0054,-0.0049,-0.0052,0.0029,0.0037,0.0181,-0.0,0.0245,0.0255,0.0264,0.049,0.0519,0.0544,0,0,0,0,0,-0.0091,-0.0089,-0.0087,-0.0091,-0.0091,-0.0095,-0.0094,-0.0095,-0.0081,-0.0072,-0.0068,-0.0081,-0.0052,-0.0043,0.0034,0.0179,-0.0006,-0.0003,0.0251,0.0259,0.0267,0.0504,0,0,0,0,0,0,-0.009,-0.0099,-0.0087,-0.0088,-0.009,-0.0096,-0.0097,-0.0095,-0.0075,-0.0072,-0.0101,-0.0101,-0.0053,-0.0046,-0.0039,0.0184,-0.001,-0.0007,-0.0005,0.0257,0.0264,0.0269,0,0,0,0,0,0,-0.01,-0.01,-0.0088,-0.0086,-0.0087,-0.0096,-0.0097,-0.0065,-0.0073,-0.0105,-0.0105,-0.0101,-0.004,-0.0047,-0.0042,0.0006,-0.0014,-0.0011,-0.0009,-0.0007,0.0263,0.0268,0,0,0,0,0,0,-0.01,-0.01,-0.0087,-0.0087,-0.0088,-0.0095,-0.0066,-0.0055,-0.0109,-0.0105,-0.0109,-0.0109,-0.004,-0.0036,-0.0044,0.0001,0.0005,-0.0013,-0.0011,-0.001,-0.0009,0,0,0,0,0,0,0,-0.01,-0.0097,-0.008,-0.0088,-0.0088,-0.0089,-0.009,-0.009,-0.0109,-0.0109,-0.0109,-0.0109,-0.003,-0.0027,-0.0024,-0.0002,0,0,-0.0014,-0.0012,0,0,0,0,0,0,0,0,-0.0098,-0.0097,-0.008,-0.008,-0.008,-0.0089,-0.009,-0.009,-0.0109,-0.0109,-0.0109,-0.0109,-0.0029,-0.0027,-0.0024,0,0,0,0,0,0,0,0,0,0,0,0,0,0,0,-0.008,-0.008,0,-0.0089,-0.009,-0.009,-0.0109,-0.0109,-0.0109,-0.0109,-0.0028,-0.0026,-0.0024,0,0,0,0,0,0,0,0,0,0,0,0,0,0,0,0,0,0,0,0,0,0,0,0,0,0,0,0,0,0,0,0,0,0,0,0,0,0,0,0,0,0,0,0,0,0,0,0,0,0,0,0,0,0,0,0,0,0,0,0,0,0,0,0,0,0,0,0,0]}],[{"header":{"parameterUnit":"kt","parameterCategory":2,"dx":1,"dy":1,"la1":30.253999710083008,"la2":30.299108505249023,"lo1":-89.0895004272461,"lo2":-89.04439544677734,"nx":28,"ny":28,"refTime":"2022-10-13T21:00:00:Z","depth":"2","parameterNumber":3,"parameterNumberName":"V-component_of_CURRENTS"},"data":[0.04,0.0534,0.0612,0.1025,0.1274,0.1626,0.1763,0.1718,0.1658,0.136,0.1184,0.0804,0.0373,-0.0082,-0.0573,-0.0837,-0.0696,-0.0886,-0.0729,-0.0368,-0.0322,-0.0556,-0.0553,0,0,0,0,0,0.0354,0.0432,0.0607,0.089,0.1144,0.1311,0.1545,0.1624,0.1673,0.156,0.1417,0.0865,0.0275,-0.0044,-0.0614,-0.1007,-0.0906,-0.1063,-0.0834,-0.0793,-0.0755,-0.0777,-0.117,-0.117,-0.1171,-0.1171,0,0,0.0284,0.0342,0.0473,0.0736,0.0971,0.1212,0.14,0.1546,0.1665,0.1703,0.1573,0.134,0.0935,0.0088,-0.0297,-0.0607,-0.0565,-0.067,-0.0643,-0.0612,-0.0641,-0.0644,-0.0992,-0.0991,-0.099,-0.0989,-0.0988,0,0.0252,0.0296,0.0398,0.0649,0.0872,0.1113,0.1394,0.1482,0.1714,0.1753,0.1745,0.1598,0.1148,0.0634,0.008,-0.0173,-0.0114,-0.0309,0.0016,-0.0107,-0.0091,-0.0145,-0.0114,-0.0333,-0.0329,-0.0325,-0.0323,-0.0321,0.0207,0.0269,0.0481,0.0613,0.0742,0.1015,0.1215,0.1441,0.1581,0.1736,0.177,0.1611,0.1428,0.0929,0.0544,0.0131,0.0224,-0.0176,-0.0186,0.013,0.0068,0.0089,0.0109,-0.027,-0.0276,-0.0282,-0.0286,0,0.0176,0.0264,0.0427,0.0647,0.0756,0.0928,0.1264,0.1415,0.1555,0.1707,0.1715,0.1672,0.1441,0.1239,0.0942,0.0739,0.0455,0.0305,0.03,0.0211,0.0148,0.0158,-0.0059,-0.0069,-0.0076,-0.0083,-0.0088,0,0.0159,0.0292,0.0443,0.0524,0.0751,0.0919,0.1167,0.1288,0.1462,0.1589,0.1568,0.1584,0.1413,0.1268,0.1077,0.0746,0.084,0.0496,0.0408,0.0393,0.0372,0.0662,0.0663,0.0666,0.0667,0.0668,0.0669,0,0.0091,0.0285,0.0423,0.0506,0.0725,0.0868,0.1018,0.1208,0.1332,0.1415,0.1467,0.1447,0.1425,0.126,0.1059,0.1071,0.0844,0.0817,0.0491,0.0475,0.0358,0.033,0.067,0.0671,0.0671,0.0671,0.0672,0,0.0084,0.0163,0.0334,0.0552,0.0616,0.0747,0.0995,0.1118,0.1247,0.1297,0.1357,0.1329,0.1334,0.1246,0.1108,0.1147,0.1001,0.0898,0.0887,0.0642,0.0541,0.0363,0.0311,0.0739,0.0741,0.0742,0.0743,0,0.0011,0.0138,0.0209,0.0401,0.0503,0.0625,0.0759,0.089,0.0979,0.1083,0.1092,0.1162,0.1131,0.1159,0.1124,0.1023,0.097,0.1035,0.0783,0.0776,0.0576,0.0553,0.0499,0.0344,0.0758,0.0757,0.0756,0,-0.0056,0.0065,0.0093,0.0185,0.0344,0.0426,0.0565,0.0709,0.0816,0.0879,0.1003,0.1063,0.1059,0.1084,0.108,0.104,0.0989,0.0962,0.0955,0.0899,0.0817,0.0601,0.0569,0.0919,0.0918,0.0917,0.0768,0,-0.0032,0.0027,0.0061,0.0159,0.025,0.0349,0.0446,0.0529,0.0607,0.0674,0.0785,0.0793,0.0875,0.0893,0.0894,0.094,0.0892,0.0838,0.0801,0.0847,0.0775,0.0766,0.0842,0.0839,0.0838,0.0836,0,0,-0.0082,-0.0045,-0.0033,0.0038,0.0138,0.0189,0.0296,0.0353,0.0476,0.0544,0.054,0.0667,0.0682,0.0786,0.083,0.0812,0.0752,0.0856,0.0835,0.0836,0.0836,0.0769,0.0763,0.0833,0.0833,0.0832,0.0831,0,-0.0087,-0.008,-0.0061,0.001,0.0113,0.0172,0.0203,0.0317,0.0388,0.048,0.0514,0.0567,0.0638,0.0686,0.0712,0.0782,0.0727,0.0802,0.0902,0.0822,0.0825,0.0827,0.0764,0.0759,0.0827,0.0827,0.0828,0,-0.0099,-0.0073,-0.0067,-0.001,0.0061,0.0145,0.0173,0.0266,0.0355,0.0355,0.0487,0.0501,0.0527,0.0604,0.0637,0.0625,0.0684,0.0704,0.0712,0.0729,0.0643,0.0647,0.0651,0.0597,0.0596,0.0596,0,0,-0.0098,-0.0096,-0.0024,-0.0003,0.0034,0.0132,0.0186,0.0253,0.0325,0.0365,0.0422,0.0474,0.0513,0.0552,0.0574,0.0627,0.0568,0.0679,0.069,0.0699,0.0721,0.0639,0.0644,0.0594,0.0594,0.0594,0,0,-0.008,-0.0034,-0.0013,0.0003,0.0079,0.0178,0.0233,0.0288,0.036,0.0387,0.0425,0.0438,0.0507,0.0506,0.0484,0.0602,0.0552,0.0556,0.0629,0.0642,0.0653,0.0678,0.0499,0,0,0,0,0,-0.005,-0.0053,-0.0036,-0.0022,0.0067,0.0149,0.0169,0.0274,0.0319,0.0353,0.0408,0.0421,0.0515,0.0494,0.0498,0.0572,0.0575,0.0578,0.0581,0.0684,0.0698,0.071,0,0,0,0,0,0,-0.0045,-0.0036,-0.0033,0.0051,0.0076,0.0147,0.0202,0.023,0.0319,0.0334,0.041,0.0421,0.0443,0.0493,0.0496,0.0568,0.0497,0.0576,0.0579,0.0582,0.0689,0.07,0.071,0,0,0,0,0,-0.004,-0.0032,0.0073,0.0055,0.0076,0.0212,0.0203,0.0227,0.0305,0.0356,0.0373,0.039,0.044,0.0448,0.0495,0.0567,0.0495,0.0496,0.0578,0.058,0.0582,0.0695,0,0,0,0,0,0,-0.0036,-0.0008,0.0081,0.0094,0.0076,0.0214,0.0232,0.0225,0.0322,0.0342,0.033,0.034,0.0437,0.0444,0.045,0.0569,0.0493,0.0495,0.0495,0.058,0.0581,0.0583,0,0,0,0,0,0,-0.001,0.0,0.0088,0.0107,0.0124,0.0214,0.0231,0.0233,0.0319,0.0289,0.0302,0.0333,0.0415,0.0441,0.0446,0.0448,0.0492,0.0493,0.0494,0.0495,0.0581,0.0583,0,0,0,0,0,0,-0.0002,0.0007,0.0104,0.0116,0.0131,0.028,0.0218,0.0291,0.0377,0.028,0.0385,0.0388,0.0409,0.0417,0.0443,0.0442,0.0446,0.0492,0.0493,0.0493,0.0494,0,0,0,0,0,0,0,0.0004,-0.0102,0.0011,0.0124,0.0136,0.0217,0.022,0.0223,0.0378,0.0381,0.0384,0.0387,0.0485,0.0487,0.0488,0.0437,0,0,0.0492,0.0493,0,0,0,0,0,0,0,0,-0.0102,-0.0102,0.0011,0.0015,0.0018,0.0217,0.022,0.0222,0.0379,0.0381,0.0383,0.0386,0.0486,0.0487,0.0488,0,0,0,0,0,0,0,0,0,0,0,0,0,0,0,0.0012,0.0014,0,0.0218,0.022,0.0221,0.0379,0.0381,0.0383,0.0385,0.0486,0.0487,0.0488,0,0,0,0,0,0,0,0,0,0,0,0,0,0,0,0,0,0,0,0,0,0,0,0,0,0,0,0,0,0,0,0,0,0,0,0,0,0,0,0,0,0,0,0,0,0,0,0,0,0,0,0,0,0,0,0,0,0,0,0,0,0,0,0,0,0,0,0,0]}]],[[{"header":{"parameterUnit":"kt","parameterCategory":2,"dx":1,"dy":1,"la1":30.253999710083008,"la2":30.299108505249023,"lo1":-89.0895004272461,"lo2":-89.04439544677734,"nx":28,"ny":28,"refTime":"2022-10-13T21:00:00:Z","depth":"4","parameterNumber":2,"parameterNumberName":"U-component_of_CURRENTS"},"data":[0.0698,0.0754,0.0804,0.0886,0.0951,0.1048,0.1121,0.1192,0.1221,0.1333,0.1374,0.1463,0.1538,0.1578,0.1622,0.164,0.1474,0.1788,0.1785,0.1522,0.1512,0.1503,0.1468,0,0,0,0,0,0.073,0.0768,0.0832,0.0928,0.1023,0.1089,0.1198,0.125,0.1363,0.1394,0.1453,0.1523,0.1593,0.164,0.1644,0.1721,0.1626,0.172,0.1489,0.1515,0.1504,0.1474,0,0,0,0,0,0,0.0784,0.0805,0.0887,0.0968,0.1064,0.1137,0.1193,0.1273,0.1341,0.1473,0.1507,0.1598,0.1669,0.1694,0.1697,0.1696,0.1628,0.1516,0.1506,0.1495,0.1474,0.1527,0.1628,0,0,0,0,0,0.0828,0.0889,0.0921,0.1018,0.1095,0.1164,0.1266,0.1303,0.1414,0.1485,0.1557,0.1589,0.1669,0.1655,0.1688,0.1623,0.1506,0.1536,0.1527,0.1381,0.1417,0.1398,0.1388,0.1462,0.146,0.1459,0.1459,0,0.0893,0.0918,0.1011,0.1052,0.1089,0.118,0.1242,0.1339,0.1382,0.1505,0.1524,0.1615,0.1629,0.1633,0.1601,0.1565,0.1523,0.1509,0.1355,0.1399,0.1384,0.1376,0.1368,0.145,0.1451,0.1451,0.1452,0,0.0925,0.0963,0.0996,0.1065,0.1104,0.1155,0.1266,0.1308,0.139,0.145,0.1476,0.1511,0.1551,0.1513,0.1468,0.1407,0.1377,0.1385,0.1343,0.1328,0.1354,0.135,0.1435,0.1438,0.1441,0.1443,0.1445,0,0.0949,0.0972,0.103,0.1038,0.1102,0.114,0.1218,0.1262,0.1325,0.1371,0.1375,0.1404,0.1348,0.1354,0.1298,0.1312,0.1281,0.1246,0.124,0.1121,0.1119,0.109,0.1083,0.114,0.114,0.1139,0.1139,0,0.095,0.0982,0.1013,0.1019,0.1061,0.1105,0.115,0.1198,0.1236,0.1288,0.1322,0.1299,0.1323,0.1271,0.1253,0.1208,0.1238,0.1154,0.1207,0.1214,0.1083,0.1078,0.1138,0.1138,0.1137,0.1137,0.1137,0,0.0945,0.0956,0.0987,0.1028,0.1039,0.1071,0.1131,0.1161,0.1197,0.1226,0.1232,0.1222,0.1216,0.118,0.1156,0.1149,0.1136,0.1107,0.1109,0.1148,0.1118,0.1073,0.1133,0.1132,0.1132,0.1131,0.1131,0,0.0936,0.0957,0.0963,0.0994,0.1006,0.1026,0.1059,0.1085,0.1113,0.1149,0.1125,0.1147,0.1116,0.1132,0.1104,0.108,0.1081,0.1056,0.1038,0.1038,0.1105,0.1172,0.1031,0.1123,0.1124,0.1125,0.1125,0,0.0925,0.094,0.0947,0.0959,0.0975,0.0988,0.1018,0.1043,0.1073,0.1089,0.1119,0.1096,0.1102,0.108,0.1052,0.103,0.1072,0.1017,0.1014,0.1064,0.1082,0.1155,0.1167,0.103,0.103,0.1031,0.112,0,0.0909,0.0926,0.0935,0.0948,0.0959,0.0973,0.0983,0.1012,0.1037,0.1042,0.1062,0.1038,0.1031,0.1018,0.1001,0.0998,0.1012,0.0963,0.0929,0.0958,0.0996,0.1001,0.0927,0.0925,0.0924,0.0923,0,0,0.09,0.0911,0.0916,0.0923,0.0929,0.0936,0.095,0.0957,0.0973,0.0988,0.0997,0.0985,0.0962,0.0939,0.0957,0.0939,0.0949,0.0934,0.0943,0.0946,0.0948,0.0986,0.0991,0.0921,0.0921,0.092,0.092,0,0.0886,0.0899,0.0912,0.0913,0.0922,0.092,0.0932,0.0939,0.0953,0.0975,0.0956,0.0957,0.0946,0.0918,0.0899,0.0926,0.0907,0.0924,0.0956,0.0934,0.0938,0.0942,0.098,0.0986,0.0917,0.0917,0.0917,0,0.0869,0.0873,0.0881,0.089,0.0891,0.0896,0.0888,0.0902,0.0914,0.0887,0.0915,0.0906,0.0869,0.0871,0.0871,0.085,0.0867,0.085,0.0855,0.0857,0.0832,0.0837,0.0842,0.0785,0.0784,0.0784,0,0,0.0861,0.0874,0.0871,0.0886,0.0889,0.0884,0.0887,0.0889,0.0889,0.0893,0.089,0.0876,0.0862,0.0855,0.0843,0.0838,0.0827,0.0837,0.0843,0.0848,0.0853,0.0831,0.0835,0.0784,0.0784,0.0784,0,0,0.0853,0.0855,0.0858,0.0872,0.0875,0.0861,0.0869,0.087,0.0876,0.0884,0.0858,0.0854,0.0868,0.0838,0.0836,0.0826,0.0796,0.0796,0.0853,0.086,0.0866,0.0878,0.0796,0,0,0,0,0,0.0841,0.0854,0.0857,0.0858,0.0858,0.0859,0.0858,0.0856,0.0861,0.0872,0.087,0.0845,0.083,0.0828,0.0822,0.0831,0.0777,0.0778,0.078,0.0852,0.086,0.0866,0,0,0,0,0,0,0.0842,0.0844,0.0856,0.0843,0.0843,0.0858,0.0847,0.0846,0.086,0.0861,0.0846,0.0843,0.0819,0.0828,0.0823,0.0833,0.0798,0.0778,0.0779,0.078,0.0854,0.0861,0.0866,0,0,0,0,0,0.0842,0.0844,0.0851,0.0842,0.0842,0.0839,0.0847,0.0847,0.0863,0.0831,0.0829,0.0865,0.0819,0.0815,0.0825,0.0836,0.0801,0.0799,0.0778,0.0779,0.078,0.0858,0,0,0,0,0,0,0.0842,0.0837,0.085,0.0849,0.0849,0.0838,0.0839,0.0847,0.0831,0.083,0.0846,0.0846,0.0819,0.0816,0.0812,0.084,0.0803,0.0801,0.08,0.0779,0.078,0.078,0,0,0,0,0,0,0.0836,0.0837,0.085,0.0858,0.0858,0.0838,0.0839,0.082,0.0831,0.0847,0.0847,0.0846,0.0822,0.0816,0.0814,0.0783,0.0805,0.0803,0.0802,0.0802,0.0779,0.078,0,0,0,0,0,0,0.0836,0.0836,0.0858,0.0858,0.0858,0.0844,0.082,0.082,0.0842,0.0847,0.0844,0.0844,0.0822,0.082,0.0814,0.0785,0.0784,0.0805,0.0804,0.0803,0.0803,0,0,0,0,0,0,0,0.0836,0.084,0.0858,0.0858,0.0858,0.0839,0.0838,0.0838,0.0842,0.0843,0.0844,0.0844,0.0814,0.0812,0.0811,0.0787,0,0,0.0805,0.0804,0,0,0,0,0,0,0,0,0.0839,0.0839,0.0858,0.0858,0.0857,0.0839,0.0838,0.0838,0.0842,0.0843,0.0843,0.0844,0.0814,0.0812,0.0811,0,0,0,0,0,0,0,0,0,0,0,0,0,0,0,0.0858,0.0858,0,0.0838,0.0838,0.0838,0.0842,0.0843,0.0843,0.0844,0.0813,0.0812,0.0811,0,0,0,0,0,0,0,0,0,0,0,0,0,0,0,0,0,0,0,0,0,0,0,0,0,0,0,0,0,0,0,0,0,0,0,0,0,0,0,0,0,0,0,0,0,0,0,0,0,0,0,0,0,0,0,0,0,0,0,0,0,0,0,0,0,0,0,0,0]}],[{"header":{"parameterUnit":"kt","parameterCategory":2,"dx":1,"dy":1,"la1":30.253999710083008,"la2":30.299108505249023,"lo1":-89.0895004272461,"lo2":-89.04439544677734,"nx":28,"ny":28,"refTime":"2022-10-13T21:00:00:Z","depth":"4","parameterNumber":3,"parameterNumberName":"V-component_of_CURRENTS"},"data":[-0.0069,-0.0019,0.0019,0.0092,0.013,0.0152,0.0153,0.0125,0.0129,0.0075,-0.0022,-0.0106,-0.0302,-0.0223,-0.0499,-0.0548,-0.0653,-0.0884,-0.0885,-0.1076,-0.1083,-0.109,-0.102,0,0,0,0,0,-0.008,-0.004,0.0007,0.0047,0.0075,0.008,0.0077,0.0053,0.0005,0.0032,-0.0022,-0.0113,-0.0301,-0.0413,-0.0513,-0.0647,-0.0868,-0.077,-0.0926,-0.108,-0.1089,-0.1018,0,0,0,0,0,0,-0.0093,-0.007,-0.0047,-0.0012,0.0008,0.0033,0.0012,0.0013,-0.0012,-0.009,-0.0082,-0.0237,-0.0353,-0.0537,-0.0663,-0.0788,-0.0822,-0.0859,-0.0879,-0.0889,-0.0798,-0.07,-0.0636,0,0,0,0,0,-0.0111,-0.012,-0.0105,-0.0065,-0.0062,-0.0059,-0.0083,-0.0074,-0.0155,-0.0218,-0.0235,-0.0344,-0.045,-0.0632,-0.0768,-0.0896,-0.1114,-0.111,-0.1116,-0.1124,-0.1076,-0.1059,-0.1055,-0.1122,-0.1124,-0.1124,-0.1125,0,-0.0146,-0.0137,-0.0137,-0.012,-0.0132,-0.0161,-0.0174,-0.0261,-0.0277,-0.036,-0.036,-0.0478,-0.0574,-0.0709,-0.0892,-0.107,-0.1078,-0.1132,-0.114,-0.1089,-0.1072,-0.1065,-0.1057,-0.1132,-0.1131,-0.1131,-0.113,0,-0.0169,-0.0169,-0.0157,-0.0182,-0.0193,-0.0214,-0.027,-0.0298,-0.0393,-0.0433,-0.047,-0.061,-0.0717,-0.0866,-0.1018,-0.1071,-0.1158,-0.116,-0.1176,-0.1162,-0.1076,-0.1066,-0.1143,-0.1141,-0.1139,-0.1137,-0.1135,0,-0.0198,-0.0194,-0.0199,-0.0195,-0.0211,-0.0266,-0.0316,-0.0387,-0.0473,-0.0502,-0.0652,-0.0683,-0.0868,-0.0948,-0.1041,-0.1101,-0.1161,-0.1128,-0.1118,-0.1155,-0.1145,-0.1168,-0.1158,-0.1248,-0.1248,-0.1247,-0.1247,0,-0.0227,-0.0218,-0.0215,-0.0222,-0.0253,-0.0293,-0.0336,-0.0437,-0.0477,-0.0614,-0.0645,-0.0794,-0.0845,-0.0954,-0.1032,-0.1032,-0.1147,-0.1145,-0.1104,-0.1096,-0.1161,-0.1152,-0.1246,-0.1246,-0.1246,-0.1246,-0.1246,0,-0.0255,-0.0241,-0.0229,-0.0262,-0.0271,-0.0288,-0.0382,-0.0423,-0.0536,-0.0594,-0.0699,-0.0763,-0.0867,-0.0874,-0.1008,-0.0973,-0.1018,-0.1047,-0.1049,-0.0976,-0.0926,-0.0994,-0.1046,-0.1044,-0.1043,-0.1041,-0.104,0,-0.029,-0.0259,-0.0284,-0.0282,-0.0277,-0.0335,-0.0379,-0.0435,-0.0503,-0.058,-0.0666,-0.074,-0.0776,-0.0814,-0.0871,-0.0924,-0.0969,-0.0916,-0.0996,-0.0998,-0.0918,-0.095,-0.0954,-0.1018,-0.1021,-0.1023,-0.1024,0,-0.0322,-0.0318,-0.032,-0.0328,-0.0353,-0.0347,-0.0394,-0.0446,-0.0494,-0.0555,-0.0635,-0.0714,-0.0765,-0.0795,-0.0826,-0.0866,-0.0934,-0.0868,-0.0871,-0.0898,-0.1029,-0.0934,-0.0937,-0.0941,-0.0944,-0.0946,-0.1009,0,-0.0362,-0.0363,-0.0347,-0.0361,-0.0368,-0.0352,-0.0387,-0.0421,-0.0474,-0.0518,-0.0604,-0.0649,-0.0727,-0.0736,-0.0753,-0.0828,-0.0821,-0.0817,-0.0817,-0.0842,-0.0861,-0.0873,-0.0732,-0.0732,-0.0732,-0.0732,0,0,-0.041,-0.0401,-0.0415,-0.0402,-0.0409,-0.0426,-0.042,-0.0447,-0.0476,-0.0519,-0.0534,-0.0645,-0.0671,-0.0737,-0.0757,-0.0744,-0.0765,-0.0757,-0.0814,-0.0823,-0.0832,-0.0852,-0.0864,-0.0732,-0.0732,-0.0732,-0.0732,0,-0.0424,-0.0444,-0.043,-0.0429,-0.042,-0.0435,-0.0431,-0.0449,-0.0492,-0.0514,-0.0574,-0.0622,-0.0654,-0.0706,-0.0729,-0.0736,-0.0768,-0.0741,-0.0762,-0.0811,-0.082,-0.0828,-0.085,-0.086,-0.0731,-0.0731,-0.0731,0,-0.0469,-0.047,-0.047,-0.0461,-0.0467,-0.0462,-0.0493,-0.0479,-0.05,-0.0538,-0.0595,-0.0631,-0.0665,-0.0696,-0.071,-0.0702,-0.0759,-0.0725,-0.0726,-0.0753,-0.0805,-0.0815,-0.0823,-0.072,-0.072,-0.072,0,0,-0.0484,-0.0483,-0.048,-0.0464,-0.0461,-0.0482,-0.0482,-0.0502,-0.0521,-0.0543,-0.0588,-0.0628,-0.0664,-0.0675,-0.0704,-0.0701,-0.0729,-0.0724,-0.0725,-0.0725,-0.0752,-0.0804,-0.0813,-0.072,-0.072,-0.072,0,0,-0.0488,-0.0493,-0.0514,-0.0497,-0.0491,-0.0498,-0.0496,-0.0523,-0.0559,-0.0577,-0.0625,-0.0635,-0.067,-0.0671,-0.0667,-0.0717,-0.0714,-0.0715,-0.0719,-0.0719,-0.072,-0.0752,-0.071,0,0,0,0,0,-0.0502,-0.0484,-0.0503,-0.05,-0.0507,-0.0481,-0.0485,-0.0527,-0.0568,-0.057,-0.0615,-0.0642,-0.069,-0.0686,-0.0688,-0.0714,-0.0719,-0.0719,-0.0719,-0.0725,-0.0726,-0.0726,0,0,0,0,0,0,-0.0501,-0.0498,-0.0502,-0.0504,-0.0505,-0.0484,-0.0543,-0.0555,-0.057,-0.0581,-0.0633,-0.0642,-0.0673,-0.0687,-0.0688,-0.0714,-0.071,-0.0719,-0.0719,-0.0719,-0.0725,-0.0726,-0.0726,0,0,0,0,0,-0.05,-0.0497,-0.0501,-0.0506,-0.0507,-0.0544,-0.0546,-0.0557,-0.0589,-0.0611,-0.0624,-0.0619,-0.0671,-0.0676,-0.0688,-0.0713,-0.0709,-0.0709,-0.0719,-0.0719,-0.0719,-0.0726,0,0,0,0,0,0,-0.0499,-0.0525,-0.0502,-0.0503,-0.0526,-0.0548,-0.0555,-0.0558,-0.0621,-0.063,-0.0597,-0.0605,-0.0668,-0.0673,-0.0676,-0.0713,-0.0709,-0.0709,-0.0709,-0.0719,-0.0719,-0.0719,0,0,0,0,0,0,-0.0525,-0.0526,-0.0503,-0.0527,-0.0532,-0.0551,-0.0557,-0.0551,-0.0622,-0.0607,-0.0613,-0.06,-0.0658,-0.067,-0.0673,-0.0663,-0.0708,-0.0709,-0.0709,-0.0709,-0.0719,-0.0719,0,0,0,0,0,0,-0.0526,-0.0527,-0.0528,-0.0531,-0.0536,-0.056,-0.0548,-0.0559,-0.0628,-0.0605,-0.0634,-0.0637,-0.0653,-0.0658,-0.0671,-0.0659,-0.0662,-0.0708,-0.0708,-0.0709,-0.0709,0,0,0,0,0,0,0,-0.0527,-0.0514,-0.0482,-0.0535,-0.054,-0.0509,-0.0511,-0.0513,-0.0628,-0.0631,-0.0634,-0.0636,-0.0706,-0.0707,-0.0707,-0.0655,0,0,-0.0708,-0.0708,0,0,0,0,0,0,0,0,-0.0515,-0.0514,-0.0482,-0.0482,-0.0481,-0.051,-0.0511,-0.0512,-0.0629,-0.0631,-0.0633,-0.0635,-0.0706,-0.0707,-0.0707,0,0,0,0,0,0,0,0,0,0,0,0,0,0,0,-0.0482,-0.0482,0,-0.051,-0.0511,-0.0512,-0.0629,-0.0631,-0.0633,-0.0634,-0.0707,-0.0707,-0.0707,0,0,0,0,0,0,0,0,0,0,0,0,0,0,0,0,0,0,0,0,0,0,0,0,0,0,0,0,0,0,0,0,0,0,0,0,0,0,0,0,0,0,0,0,0,0,0,0,0,0,0,0,0,0,0,0,0,0,0,0,0,0,0,0,0,0,0,0,0]}]]]